Location: Baia Mare
(47.6567°N, 23.5850°E)
Time: 18:12:38
(UTC+03:00)

ISS - Pass Details

Date: 03 October 2015
Orbit: 407 x 418 km, 51.6° (Epoch: 20 June)

Event Time Altitude Azimuth Distance (km) Brightness Sun altitude
Rises 20:36:49 0° 284° (WNW) 2,400 1.9 -16.7°
Reaches altitude 10° 20:39:43 10° 258° (WSW) 1,508 0.1 -17.2°
Maximum altitude 20:41:32 14° 226° (SW) 1,280 -0.9 -17.5°
Drops below altitude 10° 20:43:19 10° 193° (SSW) 1,481 -1.0 -17.8°
Enters shadow 20:44:03 - 183° (S) 1,659 -0.8 -17.9°
